Content
SEND FEEDBACK

Daily
Averages
Monthly
Summary
United States of America

ASHEVILLE, NORTH CAROLINA


Home > North America > United States > North Carolina
Elevation: 682 meters     Latitude: 35 36N     Longitude: 082 32W

WEATHER
 
SELECT A DAY
Number of Records: 225,295;   Date Range: 1/1/95 - 7/7/14
 
SHARE

PRINT THIS DATA

[ ← Previous Day ]
WEATHER ALMANAC - 12 FEBRUARY, 2013
[ Next Day → ]
[ °F ]   °C
Weather ElementAverageHighLow
Temperature7.2 °C11.1 °C (1:54 pm)4.4 °C (6:54 am)
Dewpoint-2.9 °C3.3 °C (8:54 pm)-5 °C (4:54 am)
Humidity52.1 %93 % (11:54 pm)32 % (1:54 pm)
Barometer1016.6 hPa1019.3 hPa (7:54 am)1013.5 hPa (5:54 pm)
Wind Speed14 km/h42.6 km/h (9:54 am)
Wind Gust50.1 km/h (9:54 am)
Weather ElementAverage
Visibility15.9 km
Wind DirectionWSW (263 °)

Weather ElementTotal
Precipitation2.03 mm
Heating Degree Days10.6 (Base 18.3)
Averaged from 23 records on 12 February, 2013
WEATHER CONDITIONS BREAKOUT
WIND DIRECTION BREAKOUT
WEATHER BY HOUR - 12 FEBRUARY, 2013
[ °F ]   °C
Local TimeTemperatureDewpointHumidityBarometerVisibilityWind DirectionWind SpeedGust SpeedPrecipitationEventsConditions
1:54 AM6.7 °C-1.1 °C58 %1017.3 hPa16.1 kmNNW (330°)16.7 km/hClear
2:54 AM6.1 °C-3.3 °C51 %1017.9 hPa16.1 kmNNW (340°)24.1 km/h38.9 km/hClear
3:54 AM5.6 °C-4.4 °C49 %1017.6 hPa16.1 kmNorth (350°)24.1 km/h37 km/hClear
4:54 AM5 °C-5 °C49 %1017.9 hPa16.1 kmNorth (350°)24.1 km/h35.2 km/hClear
5:54 AM5 °C-5 °C49 %1017.9 hPa16.1 kmNorth (350°)20.4 km/h35.2 km/hClear
6:54 AM4.4 °C-5 °C51 %1017.9 hPa16.1 kmNorth (360°)20.4 km/h37 km/hClear
7:54 AM4.4 °C-5 °C51 %1019.3 hPa16.1 kmNorth (350°)24.1 km/h38.9 km/hClear
8:54 AM5.6 °C-5 °C47 %1019 hPa16.1 kmNorth (350°)24.1 km/h42.6 km/hClear
9:54 AM6.7 °C-4.4 °C45 %1019 hPa16.1 kmNNW (340°)42.6 km/h50.1 km/hClear
10:54 AM8.3 °C-5 °C39 %1018.6 hPa16.1 kmNorth (350°)22.2 km/h29.6 km/hClear
11:54 AM10 °C-5 °C35 %1017.6 hPa16.1 kmNorth (10°)13 km/hClear
12:54 PM10.6 °C-5 °C33 %1017.3 hPa16.1 kmNW (320°)9.3 km/hClear
1:54 PM11.1 °C-5 °C32 %1016.6 hPa16.1 kmNorth (350°)7.4 km/hClear
2:54 PM11.1 °C-5 °C32 %1015.9 hPa16.1 kmCalmClear
3:54 PM11.1 °C-5 °C32 %1016.6 hPa16.1 kmNorth (350°)9.3 km/hScattered Clouds
4:54 PM10 °C-4.4 °C36 %1015.6 hPa16.1 kmNNW (340°)7.4 km/hOvercast
5:54 PM9.4 °C-4.4 °C38 %1013.5 hPa16.1 kmCalm0 mmOvercast
6:54 PM8.9 °C-3.9 °C41 %1014.2 hPa16.1 kmWNW (290°)7.4 km/hOvercast
7:54 PM5.6 °C2.8 °C82 %1015.6 hPa16.1 kmCalm0.51 mmRainLight Rain
8:54 PM5.6 °C3.3 °C85 %1015.9 hPa16.1 kmNorth (350°)14.8 km/h1.02 mmRainLight Rain
9:54 PM5 °C2.2 °C82 %1015.2 hPa16.1 kmNorth (360°)5.6 km/h0 mmOvercast
10:54 PM5 °C3.3 °C89 %1013.9 hPa16.1 kmCalm0 mmOvercast
11:54 PM4.4 °C3.3 °C93 %1013.9 hPa12.9 kmSSW (210°)5.6 km/h0.51 mmRainLight Rain
Hourly data recorded from KAVL, located 0 kilometers away from Asheville, North Carolina







STORIES FROM OUR PARTNERS